Location: Bruch
(44.2051°N, 0.4120°E)
Time: 13:11:59
(UTC+00:00)

Milstar 3 Cent rocket - Pass Details

Date: 29 November 2020
Orbit: 706 x 5147 km, 28.3° (Epoch: 25 January)

Event Time Altitude Azimuth Distance (km) Brightness Sun altitude
Exits shadow 04:00:16 23° 180° (S) 2,282 4.3 -33.7°
Maximum altitude 04:01:42 25° 163° (SSE) 2,382 4.6 -33.4°
Drops below altitude 10° 04:09:50 10° 114° (ESE) 4,470 6.6 -32.0°
Sets 04:15:40 0° 104° (ESE) 6,297 7.8 -30.9°
